Erzurum, Turkey

5:55 AM +03 on August 22, 2017 (GMT +0300)
Erzurum

Weather History for LTCE - November, 2012

Change the Weather History Date:

Tuesday, November 13, 2012

  Actual Average Record
Temperature  
Mean Temperature 44 °F -  
Max Temperature 48 °F 38 °F 59 °F (2010)
Min Temperature 41 °F 23 °F -2 °F (2007)
Degree Days  
Heating Degree Days 20    
Moisture  
Dew Point 36 °F    
Average Humidity 75    
Maximum Humidity 87    
Minimum Humidity 62    
Precipitation  
Precipitation 0.00 in 0.04 in - ()
Sea Level Pressure  
Sea Level Pressure 30.14 in    
Wind  
Wind Speed 11 mph ()    
Max Wind Speed 21 mph    
Max Gust Speed -    
Visibility 6.6 miles    
Events Rain    
Averages and records for this station are not official NWS values.
T = Trace of Precipitation, MM = Missing Value Source: Averaged Metar Reports

Daily Weather History Graph

Daily Weather History Graph

Search for Another Location

Airport or City:

Trip Planner

Search our weather history database for the weather conditions in past years. The results will help you decide how hot, cold, wet, or windy it might be!

Date:

Astronomy

Nov. 13, 2012 Rise Set
Actual Time 5:58 AM EET 4:00 PM EET
Civil Twilight 5:29 AM EET 4:29 PM EET
Nautical Twilight 4:56 AM EET 5:02 PM EET
Astronomical Twilight 4:24 AM EET 5:33 PM EET
Moon 5:09 AM EET (11/13) 3:35 PM EET (11/13)
Length of Visible Light 11h 00m
Length of Day
10h 02m
Waning Crescent, 0% of the Moon is Illuminated
Nov 13
Waning Crescent
Nov 14
New
Nov 20
First Quarter
Nov 28
Full
Dec 6
Last Quarter

Hourly Weather History & Observations

Time (EET) Temp. Windchill Dew Point Humidity Pressure Visibility Wind Dir Wind Speed Gust Speed Precip Events Conditions
12:20 AM 42.8 °F 36.6 °F 37.4 °F 81% 30.18 in 6.2 mi East 11.5 mph - N/A Rain Light Rain Showers
12:50 AM 42.8 °F 36.6 °F 35.6 °F 76% 30.18 in 6.2 mi East 11.5 mph - N/A Rain Light Rain Showers
1:20 AM 42.8 °F 36.2 °F 35.6 °F 76% 30.18 in 6.2 mi East 12.7 mph - N/A   Mostly Cloudy
1:50 AM 42.8 °F 35.8 °F 35.6 °F 76% 30.18 in 6.2 mi East 13.8 mph - N/A   Mostly Cloudy
2:00 AM 42 °F - 36 °F 72%  in 12 mi East 13.8 mph - - Rain Light Rain Showers
2:20 AM 42.8 °F 34.8 °F 35.6 °F 76% 30.15 in 6.2 mi East 17.3 mph - N/A   Mostly Cloudy
2:50 AM 42.8 °F 34.0 °F 35.6 °F 76% 30.15 in 6.2 mi East 20.7 mph - N/A   Mostly Cloudy
3:20 AM 41.0 °F 32.2 °F 35.6 °F 81% 30.15 in 6.2 mi East 18.4 mph - N/A   Mostly Cloudy
3:50 AM 41.0 °F 33.5 °F 35.6 °F 81% 30.15 in 6.2 mi East 13.8 mph - N/A   Mostly Cloudy
4:20 AM 42.8 °F 35.1 °F 35.6 °F 76% 30.15 in 6.2 mi East 16.1 mph - N/A   Mostly Cloudy
4:50 AM 42.8 °F 36.2 °F 35.6 °F 76% 30.18 in 6.2 mi East 12.7 mph - N/A   Mostly Cloudy
5:20 AM 42.8 °F 37.0 °F 35.6 °F 76% 30.18 in 6.2 mi East 10.4 mph - N/A   Mostly Cloudy
5:50 AM 42.8 °F 36.6 °F 35.6 °F 76% 30.18 in 6.2 mi East 11.5 mph - N/A   Mostly Cloudy
6:20 AM 42.8 °F 35.8 °F 35.6 °F 76% 30.18 in 6.2 mi East 13.8 mph - N/A   Mostly Cloudy
6:50 AM 42.8 °F 35.8 °F 33.8 °F 70% 30.18 in 6.2 mi East 13.8 mph - N/A   Mostly Cloudy
7:20 AM 42.8 °F 36.2 °F 35.6 °F 76% 30.18 in 6.2 mi East 12.7 mph - N/A   Mostly Cloudy
7:50 AM 42.8 °F 35.8 °F 35.6 °F 76% 30.18 in 6.2 mi East 13.8 mph - N/A   Mostly Cloudy
8:00 AM 43 °F - 35 °F 65%  in 12 mi East 13.8 mph - -   Partly Cloudy
8:20 AM 42.8 °F 34.5 °F 35.6 °F 76% 30.18 in 6.2 mi East 18.4 mph - N/A   Mostly Cloudy
8:50 AM 42.8 °F 34.3 °F 35.6 °F 76% 30.18 in 6.2 mi East 19.6 mph - N/A   Mostly Cloudy
9:20 AM 42.8 °F 34.8 °F 35.6 °F 76% 30.18 in 6.2 mi East 17.3 mph - N/A   Mostly Cloudy
9:50 AM 44.6 °F 37.4 °F 35.6 °F 71% 30.18 in 6.2 mi East 16.1 mph - N/A   Mostly Cloudy
10:20 AM 46.4 °F 39.8 °F 35.6 °F 66% 30.18 in 6.2 mi East 16.1 mph - N/A   Mostly Cloudy
10:50 AM 46.4 °F 39.8 °F 35.6 °F 66% 30.15 in 6.2 mi East 16.1 mph - N/A   Mostly Cloudy
11:20 AM 48.2 °F - 35.6 °F 62% 30.15 in 6.2 mi East 17.3 mph - N/A   Mostly Cloudy
11:50 AM 46.4 °F 39.8 °F 37.4 °F 71% 30.15 in 6.2 mi East 16.1 mph - N/A   Mostly Cloudy
12:20 PM 46.4 °F 39.5 °F 35.6 °F 66% 30.12 in 6.2 mi East 17.3 mph - N/A   Mostly Cloudy
12:50 PM 46.4 °F 41.1 °F 37.4 °F 71% 30.12 in 6.2 mi East 11.5 mph - N/A   Mostly Cloudy
1:20 PM 46.4 °F 40.7 °F 37.4 °F 71% 30.15 in 6.2 mi ESE 12.7 mph - N/A   Mostly Cloudy
1:50 PM 46.4 °F 41.1 °F 37.4 °F 71% 30.12 in 6.2 mi East 11.5 mph - N/A   Mostly Cloudy
2:00 PM 46 °F - 37 °F 63%  in 12 mi East 11.5 mph - -   Mostly Cloudy
2:20 PM 44.6 °F 37.8 °F 35.6 °F 71% 30.12 in 6.2 mi East 15.0 mph - N/A   Mostly Cloudy
2:50 PM 44.6 °F 37.8 °F 35.6 °F 71% 30.12 in 6.2 mi ESE 15.0 mph - N/A   Mostly Cloudy
3:20 PM 44.6 °F 39.2 °F 35.6 °F 71% 30.12 in 6.2 mi ESE 10.4 mph - N/A   Mostly Cloudy
3:50 PM 42.8 °F 38.6 °F 37.4 °F 81% 30.12 in 6.2 mi ESE 6.9 mph - N/A   Mostly Cloudy
4:20 PM 42.8 °F 40.1 °F 37.4 °F 81% 30.12 in 6.2 mi Variable 4.6 mph - N/A   Mostly Cloudy
4:50 PM 42.8 °F 41.1 °F 37.4 °F 81% 30.12 in 6.2 mi NE 3.5 mph - N/A   Mostly Cloudy
5:20 PM 42.8 °F - 37.4 °F 81% 30.12 in 6.2 mi Variable 2.3 mph - N/A   Mostly Cloudy
5:50 PM 42.8 °F 40.1 °F 37.4 °F 81% 30.12 in 6.2 mi NW 4.6 mph - N/A   Mostly Cloudy
6:20 PM 42.8 °F - 37.4 °F 81% 30.12 in 6.2 mi Variable 1.2 mph - N/A   Mostly Cloudy
6:50 PM 41.0 °F - 37.4 °F 87% 30.12 in 6.2 mi Variable 2.3 mph - N/A   Mostly Cloudy
7:20 PM 41.0 °F - 37.4 °F 87% 30.12 in 6.2 mi Variable 2.3 mph - N/A   Mostly Cloudy
7:50 PM 42.8 °F 37.5 °F 35.6 °F 76% 30.12 in 6.2 mi East 9.2 mph - N/A   Mostly Cloudy
8:00 PM 43 °F - 36 °F 68%  in 12 mi East 9.2 mph - -   Partly Cloudy
8:20 PM 42.8 °F 37.5 °F 35.6 °F 76% 30.12 in 6.2 mi East 9.2 mph - N/A   Mostly Cloudy
8:50 PM 42.8 °F 38.6 °F 37.4 °F 81% 30.09 in 6.2 mi ENE 6.9 mph - N/A   Mostly Cloudy
9:20 PM 42.8 °F 39.3 °F 37.4 °F 81% 30.09 in 6.2 mi NE 5.8 mph - N/A   Mostly Cloudy
9:50 PM 42.8 °F 38.6 °F 35.6 °F 76% 30.09 in 6.2 mi ESE 6.9 mph - N/A   Mostly Cloudy
10:20 PM 42.8 °F 39.3 °F 37.4 °F 81% 30.09 in 6.2 mi East 5.8 mph - N/A   Mostly Cloudy
10:50 PM 42.8 °F 39.3 °F 35.6 °F 76% 30.09 in 6.2 mi NE 5.8 mph - N/A   Mostly Cloudy
11:20 PM 42.8 °F 38.6 °F 35.6 °F 76% 30.09 in 6.2 mi East 6.9 mph - N/A   Mostly Cloudy
11:50 PM 42.8 °F 38.6 °F 35.6 °F 76% 30.09 in 6.2 mi East 6.9 mph - N/A   Mostly Cloudy